Saint Catherine Internationa, Egypt

1:43 PM EET on July 30, 2016 (GMT +0200)
Saint Catherine International

Weather History for HESC - May, 2014

Change the Weather History Date:

Friday, May 9, 2014

  Actual Average Record
Temperature  
Mean Temperature 60 °F -  
Max Temperature 69 °F - - ()
Min Temperature 50 °F - - ()
Degree Days  
Heating Degree Days 6    
Growing Degree Days 10 (Base 50)    
Moisture  
Dew Point 36 °F    
Average Humidity 44    
Maximum Humidity 76    
Minimum Humidity 21    
Precipitation  
Precipitation 0.00 in - - ()
Sea Level Pressure  
Sea Level Pressure 30.11 in    
Wind  
Wind Speed 7 mph ()    
Max Wind Speed 23 mph    
Max Gust Speed -    
Visibility 6.2 miles    
Events      
T = Trace of Precipitation, MM = Missing Value Source: Averaged Metar Reports

Daily Weather History Graph

Daily Weather History Graph

Search for Another Location

Airport or City:

Trip Planner

Search our weather history database for the weather conditions in past years. The results will help you decide how hot, cold, wet, or windy it might be!

Date:

Astronomy

May. 09, 2014 Rise Set
Actual Time 4:56 AM EET 6:23 PM EET
Civil Twilight 4:31 AM EET 6:49 PM EET
Nautical Twilight 4:01 AM EET 7:19 PM EET
Astronomical Twilight 3:29 AM EET 7:51 PM EET
Moon 1:27 PM EET (5/9) 1:20 AM EET (5/9)
Length of Visible Light 14h 17m
Length of Day
13h 26m
Waxing Gibbous, 71% of the Moon is Illuminated
May 9
Waxing Gibbous
May 14
Full
May 21
Last Quarter
May 28
New
Jun 5
First Quarter

Hourly Weather History & Observations

Time (EET) Temp. Dew Point Humidity Pressure Visibility Wind Dir Wind Speed Gust Speed Precip Events Conditions
12:00 AM 53.6 °F 39.2 °F 58% 30.04 in - West 10.4 mph - N/A   Clear
1:00 AM 53.6 °F 39.2 °F 58% 30.04 in - West 11.5 mph - N/A   Clear
2:00 AM 53.6 °F 39.2 °F 58% 30.04 in - NW 10.4 mph - N/A   Clear
3:00 AM 53.6 °F 39.2 °F 58% 30.04 in - West 8.1 mph - N/A   Clear
4:00 AM 51.8 °F 42.8 °F 71% 30.04 in - Calm Calm - N/A   Clear
5:00 AM 50.0 °F 42.8 °F 76% 30.09 in - Calm Calm - N/A   Clear
6:00 AM 50.0 °F 42.8 °F 76% 30.09 in - Calm Calm - N/A   Clear
7:00 AM 55.4 °F 42.8 °F 63% 30.12 in - Calm Calm - N/A   Clear
8:00 AM 59.0 °F 37.4 °F 45% 30.12 in - Calm Calm - N/A   Clear
9:00 AM 60.8 °F 39.2 °F 45% 30.12 in - Calm Calm - N/A   Clear
10:00 AM 69.8 °F 35.6 °F 28% 30.12 in 6.2 mi ENE 9.2 mph - N/A   Scattered Clouds
11:00 AM 62.6 °F 33.8 °F 34% 30.12 in 6.2 mi Calm Calm - N/A   Partly Cloudy
12:00 PM 64.4 °F 32.0 °F 30% 30.12 in - Calm Calm - N/A   Clear
1:00 PM 64.4 °F 33.8 °F 32% 30.12 in 6.2 mi Calm Calm - N/A   Partly Cloudy
2:00 PM 68.0 °F 33.8 °F 28% 30.12 in 6.2 mi WNW 16.1 mph - N/A   Partly Cloudy
3:00 PM 68.0 °F 30.2 °F 24% 30.12 in 6.2 mi WNW 23.0 mph - N/A   Partly Cloudy
4:00 PM 68.0 °F 26.6 °F 21% 30.12 in 6.2 mi WNW 20.7 mph - N/A   Partly Cloudy
5:00 PM 64.4 °F 28.4 °F 26% 30.12 in 6.2 mi NW 16.1 mph - N/A   Partly Cloudy
6:00 PM 64.4 °F 41.0 °F 42% 30.12 in 6.2 mi NW 17.3 mph - N/A   Partly Cloudy
7:00 PM 62.6 °F 24.8 °F 24% 30.15 in - WNW 15.0 mph - N/A   Clear
8:00 PM 60.8 °F 28.4 °F 29% 30.15 in - WNW 12.7 mph - N/A   Clear
9:00 PM 59.0 °F 44.6 °F 59% 30.15 in - NNW 8.1 mph - N/A   Clear
10:00 PM 59.0 °F 35.6 °F 42% 30.15 in - NNW 6.9 mph - N/A   Clear
11:00 PM 59.0 °F 33.8 °F 39% 30.15 in - NW 5.8 mph - N/A   Clear